Regional Weather Roundup
Issued by NWS Sioux Falls, SD

Home | Current Version | Previous Version | Graphics & Text | Print | Product List | Glossary On
Versions: 1 2 3 4 5 6 7 8 9 10 11 12 13 14 15 16 17 18 19 20 21 22 23 24 25 26 27 28 29 30 31 32 33 34 35 36 37 38 39 40 41 42 43 44 45 46 47 48 49 50
016
ASUS43 KFSD 301202
RWRFSD

WEATHER ROUNDUP FOR SE SOUTH DAKOTA/SW MINNESOTA/NW IOWA
NATIONAL WEATHER SERVICE SIOUX FALLS SD
700 AM CDT SUN APR 30 2017

NOTE: "FAIR" INDICATES FEW OR NO CLOUDS BELOW 12,000 FEET WITH NO
SIGNIFICANT WEATHER AND OR OBSTRUCTIONS TO VISIBILITY.


SDZ038>040-050-052>070-301300-
SOUTHEAST SOUTH DAKOTA

CITY           SKY/WX    TMP DP  RH WIND       PRES   REMARKS
BROOKINGS      CLOUDY    38  25  59 NE9       30.01F
CHAMBERLAIN    MOCLDY    40  28  63 NW8       30.05R
6HR MIN TEMP:  40; 6HR MAX TEMP:  47;

HURON          MOCLDY    38  27  64 NE10      30.05S
6HR MIN TEMP:  38; 6HR MAX TEMP:  43;

MADISON        FAIR      37  27  65 NE13      29.99F
MITCHELL       MOCLDY    39  29  67 N9        30.03S
6HR MIN TEMP:  39; 6HR MAX TEMP:  46;

SIOUX FALLS    CLOUDY    44  30  57 NE10      29.97F
6HR MIN TEMP:  43; 6HR MAX TEMP:  46;

WINNER         FAIR      32  25  75 NW6       30.05R WCI  26
YANKTON        CLOUDY    39  34  81 NE10      29.96S
$$

MNZ071-072-080-081-089-090-097-098-301300-
SOUTHWEST MINNESOTA

CITY           SKY/WX    TMP DP  RH WIND       PRES   REMARKS
FAIRMONT       LGT RAIN  39  36  89 NE10      29.98F
JACKSON        FLURRIES  37  32  81 NE15G23   29.98F
LUVERNE        DRIZZLE   41  30  65 NE14G25   29.97F
MARSHALL       CLOUDY    41  28  60 E12       30.02S
6HR MIN TEMP:  41; 6HR MAX TEMP:  45;

MONTEVIDEO     CLOUDY    39  28  65 E8        30.04F
PIPESTONE      CLOUDY    41  25  52 NE9       29.98F
REDWOOD FALLS  CLOUDY    43  26  51 NE7       30.03F
TRACY          CLOUDY    42  31  64 E10       30.01F
WINDOM         RAIN      37  32  81 NE12      29.99F
WORTHINGTON    LGT SNOW  36  31  82 NE20      29.97F
$$

IAZ001>003-012>014-020>022-031-032-NEZ013-014-SDZ071-301300-
NORTHWEST IOWA

CITY           SKY/WX    TMP DP  RH WIND       PRES   REMARKS
CHEROKEE       LGT RAIN  38  38  99 NE14G21   29.89F
DENISON        CLOUDY    37  37 100 NE17G29   29.81F
ESTHERVILLE    LGT RAIN  38  36  92 NE22      29.94F
ORANGE CITY    LGT RAIN  37  37 100 NE9G17    29.90F
SHELDON        RAIN      39  36  87 NE16      29.91F
SIOUX CITY     LGT RAIN  39  37  92 NE20G29   29.87F
6HR MIN TEMP:  39; 6HR MAX TEMP:  46; 6HR PCP:  0.08;

SPENCER        LGT RAIN  39  36  89 NE20      29.93F
6HR MIN TEMP:  39; 6HR MAX TEMP:  46; 6HR PCP:  0.14;

STORM LAKE     CLOUDY    37  36  93 NE23G32   29.87F
$$

ABBREVIATIONS USED IN REMARKS
   TC - TEMPERATURE IN CELSIUS
  WCI - WIND CHILL INDEX
   HX - HEAT INDEX
  VSB - VISIBILITY





USA.gov is the U.S. government's official web portal to all federal, state and local government web resources and services.